FW5669 Weather Reports


time (UTC)temp
C
wind
direction
speed
KPH
gust
KPH
rain 1hr
cm
rain 24hr
cm
rain mn
cm
humidity
%
barometer
mb
20260510071559 16 16 0.0 1.6 0.00 0.00 0.00 87 1014.1
20260510070059 16 16 0.0 1.6 0.00 0.00 0.00 86 1014.0
20260510070003 16 16 0.0 1.6 0.00 0.00 0.00 86 1014.0
20260510064601 16 16 0.0 1.6 0.00 0.00 0.00 85 1014.0
20260510063058 17 16 0.0 1.6 0.00 0.00 0.00 84 1014.0
20260510061558 17 8 0.0 0.0 0.00 0.00 0.00 83 1014.1
20260510060059 17 8 0.0 0.0 0.00 0.00 0.00 82 1013.9
20260510054600 18 8 0.0 1.6 0.00 0.00 0.00 80 1014.0
20260510053059 18 57 0.0 1.6 0.00 0.00 0.00 80 1014.0
20260510051603 18 71 0.0 3.2 0.00 0.00 0.00 79 1014.1
20260510050059 18 60 0.0 1.6 0.00 0.00 0.00 78 1014.0
20260510044558 19 25 0.0 3.2 0.00 0.00 0.00 77 1013.9
20260510043059 20 50 0.0 3.2 0.00 0.00 0.00 76 1013.9
20260510041559 20 7 0.0 1.6 0.00 0.00 0.00 73 1013.8
20260510040100 20 7 0.0 1.6 0.00 0.00 0.00 73 1013.5
20260510034600 21 215 0.0 1.6 0.00 0.00 0.00 72 1013.4
20260510033134 21 215 0.0 1.6 0.00 0.00 0.00 69 1013.3
20260510031559 22 215 0.0 1.6 0.00 0.00 0.00 64 1013.1
20260510030059 23 215 0.0 0.0 0.00 0.00 0.00 60 1013.1
20260510024606 25 215 0.0 0.0 0.00 0.00 0.00 57 1013.0
20260510023059 25 215 0.0 1.6 0.00 0.00 0.00 56 1012.9
20260510021558 25 144 0.0 1.6 0.00 0.00 0.00 54 1012.9
20260510020059 26 212 0.0 3.2 0.00 0.00 0.00 51 1012.9
20260510020002 26 212 0.0 3.2 0.00 0.00 0.00 52 1012.9
20260510014602 26 189 1.6 3.2 0.00 0.00 0.00 51 1012.8
20260510013000 26 196 0.0 3.2 0.00 0.00 0.00 54 1012.9
20260510011501 26 143 0.0 3.2 0.00 0.00 0.00 53 1012.9
20260510010002 27 179 0.0 3.2 0.00 0.00 0.00 50 1013.0
20260510004600 27 158 0.0 3.2 0.00 0.00 0.00 52 1013.1
20260510004501 27 158 0.0 3.2 0.00 0.00 0.00 51 1013.1
20260510003107 27 149 0.0 4.8 0.00 0.00 0.00 54 1013.1
20260510003002 27 177 0.0 4.8 0.00 0.00 0.00 53 1013.1
20260510001502 27 158 0.0 4.8 0.00 0.00 0.00 53 1013.2
20260510000006 27 132 1.6 4.8 0.00 0.00 0.00 50 1013.4
20260509234502 27 158 1.6 4.8 0.00 0.00 0.00 50 1013.5
20260509233003 26 273 1.6 8.0 0.00 0.00 0.00 53 1013.5
20260509231500 27 133 1.6 4.8 0.00 0.00 0.00 54 1013.6
20260509230002 27 150 1.6 6.4 0.00 0.00 0.00 53 1013.9
20260509224603 27 253 1.6 6.4 0.00 0.00 0.00 54 1013.8
20260509223003 27 203 1.6 6.4 0.00 0.00 0.00 52 1013.9
20260509221502 27 316 1.6 4.8 0.00 0.00 0.00 54 1014.1
20260509220001 27 233 0.0 8.0 0.00 0.00 0.00 53 1014.1
20260509214600 26 235 1.6 9.7 0.00 0.00 0.00 54 1014.4
20260509213101 26 44 1.6 6.4 0.00 0.00 0.00 52 1015.0
20260509211600 26 273 1.6 4.8 0.00 0.00 0.00 55 1014.7
20260509210105 26 177 1.6 4.8 0.00 0.00 0.00 56 1014.7
20260509204608 26 260 1.6 4.8 0.00 0.00 0.00 57 1014.8
20260509203115 26 178 1.6 4.8 0.00 0.00 0.00 58 1014.7
20260509201600 25 158 1.6 4.8 0.00 0.00 0.00 57 1014.9
20260509200100 25 236 1.6 4.8 0.00 0.00 0.00 58 1015.0
20260509200002 25 224 0.0 4.8 0.00 0.00 0.00 59 1015.0
20260509194501 25 139 3.2 8.0 0.00 0.00 0.00 63 1015.1
20260509193006 25 171 1.6 6.4 0.00 0.00 0.00 59 1015.3
20260509191601 24 283 1.6 4.8 0.00 0.00 0.00 59 1015.4
20260509191500 24 160 0.0 4.8 0.00 0.00 0.00 60 1015.5
20260509190008 24 209 1.6 6.4 0.00 0.00 0.00 60 1015.6
20260509184602 24 172 0.0 4.8 0.00 0.00 0.00 61 1015.9
20260509183113 23 212 0.0 4.8 0.00 0.00 0.00 62 1015.9
20260509181611 23 222 1.6 6.4 0.00 0.00 0.00 62 1015.8
20260509180001 23 204 0.0 4.8 0.00 0.00 0.00 62 1015.8
20260509174559 22 185 0.0 4.8 0.00 0.00 0.00 63 1015.9
20260509173110 22 164 3.2 6.4 0.00 0.00 0.00 62 1015.8
20260509171600 22 212 0.0 6.4 0.00 0.00 0.00 65 1016.0
20260509170100 22 243 0.0 4.8 0.00 0.00 0.00 65 1015.9
20260509170002 22 198 0.0 4.8 0.00 0.00 0.00 63 1015.9
20260509164600 22 220 1.6 4.8 0.00 0.00 0.00 63 1015.8
20260509163101 22 227 0.0 3.2 0.00 0.00 0.00 65 1015.6
20260509161604 22 226 0.0 3.2 0.00 0.00 0.00 64 1015.7
20260509160005 22 138 0.0 1.6 0.00 0.00 0.00 64 1015.9
20260509154614 21 353 0.0 1.6 0.00 0.00 0.00 64 1015.8
20260509153110 20 351 0.0 1.6 0.00 0.00 0.00 70 1015.8
20260509151612 19 320 0.0 3.2 0.00 0.00 0.00 74 1016.0
20260509150002 17 38 0.0 1.6 0.00 0.00 0.00 74 1016.0
20260509144602 16 51 0.0 3.2 0.00 0.00 0.00 77 1015.8
20260509143110 15 47 0.0 0.0 0.00 0.00 0.00 82 1015.6
20260509141600 13 55 0.0 0.0 0.00 0.00 0.00 87 1015.6
20260509140002 12 49 0.0 0.0 0.00 0.00 0.00 90 1015.6
20260509134601 11 7 0.0 0.0 0.00 0.00 0.00 92 1015.5
20260509133001 11 7 0.0 0.0 0.00 0.00 0.00 92 1015.6
20260509131600 11 7 0.0 0.0 0.00 0.00 0.00 91 1015.6
20260509130115 12 355 0.0 0.0 0.00 0.00 0.00 91 1015.6
20260509130002 12 355 0.0 0.0 0.00 0.00 0.00 91 1015.5
20260509124600 12 355 0.0 0.0 0.00 0.00 0.00 91 1015.4
20260509123003 12 355 0.0 0.0 0.00 0.00 0.00 91 1015.3
20260509121501 12 355 0.0 0.0 0.00 0.00 0.00 90 1015.3
20260509120002 12 355 0.0 0.0 0.00 0.00 0.00 90 1015.4
20260509114600 12 355 0.0 0.0 0.00 0.00 0.00 91 1015.2
20260509113101 12 355 0.0 0.0 0.00 0.00 0.00 91 1015.3
20260509111612 12 355 0.0 0.0 0.00 0.00 0.00 91 1015.2
20260509111502 12 355 0.0 0.0 0.00 0.00 0.00 91 1015.3
20260509110101 12 355 0.0 0.0 0.00 0.00 0.00 91 1015.4
20260509110001 12 355 0.0 0.0 0.00 0.00 0.00 91 1015.4
20260509104611 12 355 0.0 0.0 0.00 0.00 0.00 91 1015.5
20260509103111 12 355 0.0 0.0 0.00 0.00 0.00 91 1015.5
20260509101600 12 355 0.0 0.0 0.00 0.00 0.00 91 1015.7
20260509101502 12 355 0.0 0.0 0.00 0.00 0.00 91 1015.7
20260509100005 12 355 0.0 0.0 0.00 0.00 0.00 91 1015.8
20260509094602 12 355 0.0 0.0 0.00 0.00 0.00 91 1015.8
20260509093103 12 355 0.0 0.0 0.00 0.00 0.00 91 1015.8
20260509093001 12 355 0.0 0.0 0.00 0.00 0.00 91 1015.9
20260509091600 12 355 0.0 0.0 0.00 0.00 0.00 91 1016.0
20260509090106 13 355 0.0 0.0 0.00 0.00 0.00 91 1016.1
20260509090001 13 355 0.0 0.0 0.00 0.00 0.00 91 1016.1
20260509084608 13 355 0.0 0.0 0.00 0.00 0.00 91 1016.0
20260509083059 13 355 0.0 0.0 0.00 0.00 0.00 91 1016.1
20260509081600 13 355 0.0 0.0 0.00 0.00 0.00 90 1016.3
20260509080001 13 355 0.0 0.0 0.00 0.00 0.00 90 1016.4
20260509074501 13 355 0.0 0.0 0.00 0.00 0.00 90 1016.4
20260509073003 13 355 0.0 0.0 0.00 0.00 0.00 90 1016.5